Simultaneous Nadir Overpasses (SNOs) Predictions

Prediction of SNOs between LANDSAT-8 and NOAA-19 Satellite Orbit:

Table of predicted SNOs for the next 14.0 days since TLE Epoch: 3/27/2021
Index Date (LANDSAT-8) Time (LANDSAT-8) Lat,Lon (LANDSAT-8) SZA (LANDSAT-8 ) Date (NOAA-19) Time (NOAA-19) Lat,Lon (NOAA-19) SZA (NOAA-19 ) Distance(km) Time Diff (sec)
1 03/27/2021 14:38:09 80.29, -9.68 78.60 03/27/2021 14:37:16 80.30, -9.58 78.60 1.87 53
2 03/27/2021 15:27:36 -80.29, 157.94 101.42 03/27/2021 15:28:21 -80.29, 157.76 101.42 3.37 45
3 03/29/2021 21:01:19 80.29,-105.47 77.74 03/29/2021 21:01:28 80.30,-105.56 77.74 1.81 9
4 04/01/2021 02:35:03 -80.29, -8.92 103.12 04/01/2021 02:34:45 -80.30, -8.81 103.11 2.15 18
5 04/01/2021 03:24:29 80.29, 158.72 76.88 04/01/2021 03:25:39 80.28, 158.79 76.90 1.86 70
6 04/03/2021 08:08:45 80.32, 87.90 76.09 04/03/2021 08:07:52 80.31, 87.84 76.06 1.61 53
7 04/03/2021 08:58:12 -80.29,-104.73 103.97 04/03/2021 08:58:56 -80.30,-104.82 103.95 2.15 44
8 04/05/2021 14:31:54 80.31, -7.96 75.24 04/05/2021 14:32:02 80.29, -7.82 75.23 3.40 8
9 04/07/2021 20:05:38 -80.31, 88.58 105.60 04/07/2021 20:05:20 -80.32, 88.45 105.61 2.78 18
10 04/07/2021 20:55:04 80.30,-103.84 74.38 04/07/2021 20:56:14 80.29,-103.83 74.40 1.10 70
11 04/10/2021 01:39:20 80.32,-174.72 73.62 04/10/2021 01:38:27 80.32,-174.80 73.59 1.42 53



Historial Predications of SNOs between LANDSAT-8 and NOAA-19
